Powrót do katalogu

STARLINK-32918

AktywnyŁącznośćVLEO
NORAD 63087·PAYLOAD·🇺🇸 United States

Wystrzelony Feb 23, 2025 z Vandenberg Space Force Base

Loading…

Następne Przeloty (najbliższe 24 godziny)

TLE

ŚwieżeSource: CelesTrak SupGP

Epoka: Sep 14, 2026, 20:48 UTC

1 63087C 25037L   26257.86715278 -.00030755  00000+0 -10701-2 0  2576
2 63087  70.0006 235.7421 0003089 267.4972  47.5776 15.29587995    17

Śledź STARLINK-32918 w czasie rzeczywistym z AllMySat

Download on the App Store